[[{"header":{"parameterUnit":"m.s-1","parameterCategory":2,"la1":30.2991,"la2":30.254,"lo1":-89.0895,"lo2":-89.0444,"dy":0.0017,"dx":0.0017,"nx":28,"ny":28,"refTime":"2026-01-31T03:00:00:Z","depth":"0","parameterNumber":2,"parameterNumberName":"U-component_of_CURRENTS"},"data":[0,0,0,0,0,0,0,0,0,0,0,0,0,0,0,0,0,0,0,0,0,0,0,0,0,0,0,0,0,0,0,0,0,0,0,0,0,0,0,0,0,0,0,0,0,0,0,0,0,0,0,0,0,0,0,0,0,0,-0.3034,-0.3035,0,-0.3083,-0.3083,-0.3084,-0.2981,-0.2978,-0.2975,-0.2973,-0.2882,-0.2882,-0.2883,0,0,0,0,0,0,0,0,0,0,0,0,0,-0.2692,-0.2699,-0.3034,-0.3035,-0.3036,-0.3083,-0.3083,-0.3084,-0.2981,-0.2978,-0.2975,-0.2971,-0.2882,-0.2882,-0.2883,0,0,0,0,0,0,0,0,0,0,0,0,0,-0.2795,-0.2701,-0.3033,-0.2995,-0.2993,-0.3083,-0.3083,-0.3084,-0.2982,-0.2978,-0.2974,-0.297,-0.2882,-0.2882,-0.2883,-0.2968,0,0,-0.2883,-0.2884,0,0,0,0,0,0,0,0,-0.279,-0.2807,-0.3,-0.2998,-0.2996,-0.3027,-0.293,-0.304,-0.2983,-0.298,-0.2973,-0.2968,-0.2925,-0.2921,-0.2933,-0.2963,-0.296,-0.2883,-0.2884,-0.2884,-0.2884,0,0,0,0,0,0,0,-0.2783,-0.2804,-0.3047,-0.3002,-0.2999,-0.2922,-0.2933,-0.295,-0.2968,-0.298,-0.2974,-0.2991,-0.2921,-0.2933,-0.293,-0.2958,-0.2883,-0.2884,-0.2884,-0.2884,-0.2784,-0.2781,0,0,0,0,0,0,-0.2804,-0.2799,-0.3045,-0.3049,-0.2887,-0.2933,-0.2944,-0.3016,-0.297,-0.2962,-0.2994,-0.2986,-0.2935,-0.293,-0.2926,-0.285,-0.2884,-0.2884,-0.2884,-0.2786,-0.2783,-0.278,0,0,0,0,0,0,-0.2798,-0.2828,-0.3044,-0.2925,-0.2948,-0.2945,-0.3025,-0.3019,-0.3016,-0.2984,-0.2971,-0.2994,-0.2931,-0.2926,-0.2882,-0.2852,-0.2884,-0.2884,-0.279,-0.2785,-0.2781,-0.2809,0,0,0,0,0,0,-0.2789,-0.2827,-0.2881,-0.293,-0.2956,-0.3063,-0.3029,-0.3024,-0.3037,-0.3025,-0.2982,-0.2969,-0.2928,-0.2881,-0.2882,-0.2853,-0.2885,-0.2793,-0.2788,-0.2783,-0.2812,-0.2806,-0.2801,0,0,0,0,0,-0.2777,-0.2868,-0.2885,-0.2914,-0.3035,-0.3064,-0.3068,-0.3044,-0.3041,-0.3029,-0.2981,-0.297,-0.2846,-0.2882,-0.2882,-0.2852,-0.2796,-0.2789,-0.2783,-0.2814,-0.2807,-0.2802,0,0,0,0,0,0,-0.2743,-0.287,-0.2887,-0.3013,-0.3021,-0.3047,-0.3056,-0.306,-0.3027,-0.301,-0.2971,-0.2955,-0.289,-0.2873,-0.2913,-0.2795,-0.2806,-0.28,-0.2829,-0.2823,-0.2818,-0.2814,-0.2885,0,0,0,0,0,-0.2773,-0.2878,-0.2937,-0.3029,-0.3037,-0.3054,-0.3068,-0.3056,-0.3043,-0.3026,-0.2991,-0.2934,-0.2876,-0.2851,-0.2799,-0.2783,-0.2767,-0.2745,-0.274,-0.2736,-0.2726,-0.2683,-0.2676,-0.2759,-0.2759,-0.2759,0,0,-0.2799,-0.2871,-0.2937,-0.3027,-0.3037,-0.3037,-0.3048,-0.3068,-0.3045,-0.3026,-0.2972,-0.293,-0.2864,-0.2798,-0.2768,-0.2779,-0.2703,-0.2728,-0.2727,-0.2718,-0.2676,-0.2669,-0.2662,-0.2755,-0.2756,-0.2756,0,0,-0.2841,-0.2945,-0.3007,-0.3015,-0.304,-0.3042,-0.305,-0.3064,-0.3034,-0.3011,-0.2953,-0.2891,-0.2843,-0.2764,-0.2726,-0.2674,-0.2677,-0.2652,-0.2639,-0.2599,-0.2593,-0.2587,-0.2573,-0.2566,-0.2654,-0.2654,-0.2654,0,-0.2856,-0.2943,-0.3015,-0.3027,-0.3025,-0.3041,-0.3035,-0.3026,-0.3011,-0.2984,-0.2975,-0.286,-0.2815,-0.2718,-0.2674,-0.2666,-0.2657,-0.2682,-0.2598,-0.2592,-0.2586,-0.2572,-0.2564,-0.2655,-0.2655,-0.2655,-0.2654,0,-0.2897,-0.295,-0.2972,-0.3003,-0.3006,-0.301,-0.2999,-0.2981,-0.2968,-0.2948,-0.2864,-0.2806,-0.2731,-0.2699,-0.2676,-0.2593,-0.2607,-0.2603,-0.2631,-0.258,-0.2567,-0.2559,-0.2655,-0.2655,-0.2655,-0.2655,0,0,-0.2958,-0.3002,-0.2999,-0.2988,-0.299,-0.2994,-0.2956,-0.292,-0.29,-0.2856,-0.281,-0.2701,-0.269,-0.2641,-0.2604,-0.2566,-0.2524,-0.2573,-0.257,-0.259,-0.2459,-0.2366,-0.2348,-0.2522,-0.252,-0.2518,-0.2475,0,-0.2943,-0.2965,-0.2983,-0.2959,-0.2954,-0.2944,-0.2914,-0.2883,-0.2854,-0.2813,-0.2743,-0.2682,-0.2662,-0.2635,-0.259,-0.2536,-0.2499,-0.2537,-0.2476,-0.2474,-0.2423,-0.2333,-0.2197,-0.2136,-0.2466,-0.2465,-0.2464,0,-0.2936,-0.2952,-0.2942,-0.2934,-0.293,-0.2915,-0.287,-0.2846,-0.2792,-0.2772,-0.271,-0.2674,-0.2586,-0.2592,-0.2485,-0.2519,-0.2483,-0.2452,-0.2449,-0.2343,-0.2362,-0.2231,-0.2108,-0.2083,-0.2451,-0.2452,-0.2453,0,-0.29,-0.2908,-0.2898,-0.2894,-0.2894,-0.2873,-0.2863,-0.2825,-0.2792,-0.2743,-0.2719,-0.2638,-0.2586,-0.253,-0.2453,-0.2477,-0.2355,-0.2382,-0.2263,-0.2259,-0.2114,-0.2098,-0.1978,-0.2301,-0.2301,-0.2301,-0.2301,0,-0.2867,-0.2851,-0.2884,-0.2875,-0.2842,-0.286,-0.2816,-0.28,-0.2772,-0.2723,-0.2695,-0.2636,-0.2568,-0.249,-0.2446,-0.231,-0.2344,-0.223,-0.2219,-0.2117,-0.2103,-0.2052,-0.2098,-0.23,-0.23,-0.23,-0.23,0,-0.2802,-0.2838,-0.2817,-0.2827,-0.2822,-0.2795,-0.2776,-0.2751,-0.2748,-0.2686,-0.2666,-0.261,-0.2509,-0.2438,-0.2338,-0.2273,-0.2126,-0.2127,-0.2021,-0.1994,-0.1852,-0.1905,-0.1798,-0.1749,-0.1989,-0.1986,-0.1983,0,-0.276,-0.2749,-0.276,-0.2737,-0.2731,-0.2708,-0.2688,-0.2711,-0.2687,-0.2653,-0.2612,-0.2522,-0.2404,-0.2229,-0.2103,-0.1979,-0.2008,-0.1804,-0.1797,-0.1787,-0.1839,-0.1905,-0.1878,-0.1636,-0.1631,-0.1627,-0.1624,0,-0.2634,-0.2652,-0.2634,-0.2611,-0.2593,-0.2574,-0.256,-0.255,-0.2573,-0.2528,-0.2449,-0.2359,-0.2188,-0.1961,-0.1807,-0.173,-0.1747,-0.1713,-0.1712,-0.1538,-0.159,-0.1556,-0.1766,-0.1587,-0.159,-0.1593,-0.1595,-0.1597,-0.2501,-0.2468,-0.2458,-0.2415,-0.2415,-0.2403,-0.2335,-0.2353,-0.23,-0.2191,-0.2239,-0.2044,-0.188,-0.1615,-0.1529,-0.1339,-0.1473,-0.1287,-0.1353,-0.1423,-0.1347,-0.1479,-0.1278,-0.128,-0.1282,-0.1283,-0.1284,0,-0.2275,-0.2272,-0.2247,-0.2202,-0.2146,-0.2214,-0.2196,-0.2103,-0.1991,-0.1948,-0.1829,-0.163,-0.1402,-0.1285,-0.1088,-0.1001,-0.1002,-0.0992,-0.1054,-0.1044,-0.1136,-0.1088,-0.0822,-0.0822,-0.0822,-0.0822,-0.0822,-0.0822,-0.2143,-0.205,-0.2057,-0.1911,-0.1897,-0.1766,-0.1725,-0.1644,-0.1569,-0.1364,-0.1233,-0.1154,-0.1092,-0.1107,-0.0938,-0.0865,-0.0883,-0.0837,-0.0923,-0.0996,-0.1029,-0.1061,-0.1022,-0.0747,-0.0747,-0.0749,-0.075,-0.075]},{"header":{"parameterUnit":"m.s-1","parameterCategory":2,"la1":30.2991,"la2":30.254,"lo1":-89.0895,"lo2":-89.0444,"dy":0.0017,"dx":0.0017,"nx":28,"ny":28,"refTime":"2026-01-31T03:00:00:Z","depth":"0","parameterNumber":3,"parameterNumberName":"V-component_of_CURRENTS"},"data":[0,0,0,0,0,0,0,0,0,0,0,0,0,0,0,0,0,0,0,0,0,0,0,0,0,0,0,0,0,0,0,0,0,0,0,0,0,0,0,0,0,0,0,0,0,0,0,0,0,0,0,0,0,0,0,0,0,0,-0.02,-0.0199,0,-0.0086,-0.0084,-0.0083,-0.0087,-0.0089,-0.009,-0.0092,0.0065,0.007,0.0076,0,0,0,0,0,0,0,0,0,0,0,0,0,-0.0277,-0.0277,-0.02,-0.0199,-0.0197,-0.0086,-0.0084,-0.0082,-0.0086,-0.0089,-0.0091,-0.0093,0.0063,0.007,0.0077,0,0,0,0,0,0,0,0,0,0,0,0,0,-0.0209,-0.0276,-0.02,-0.0188,-0.0186,-0.0086,-0.0084,-0.0082,-0.0086,-0.0089,-0.0091,-0.0094,0.006,0.0069,0.0078,0.0187,0,0,0.0105,0.0108,0,0,0,0,0,0,0,0,-0.0213,-0.0206,-0.0191,-0.0189,-0.0186,-0.0105,-0.0054,0.0009,-0.0085,-0.0121,-0.0092,-0.0095,0.0012,0.0025,0.0055,0.0194,0.0201,0.0105,0.0111,0.0115,0.0117,0,0,0,0,0,0,0,-0.0218,-0.021,-0.0152,-0.0189,-0.0186,-0.0139,-0.0133,-0.0041,-0.0038,-0.0118,-0.0119,-0.0109,0.0014,0.0047,0.0059,0.0203,0.0105,0.0113,0.0118,0.0122,0.035,0.0351,0,0,0,0,0,0,-0.0242,-0.0215,-0.0156,-0.0149,-0.021,-0.0136,-0.013,-0.0126,-0.004,-0.003,-0.0107,-0.011,0.0033,0.0049,0.0065,0.0106,0.0114,0.0123,0.0128,0.0349,0.035,0.0351,0,0,0,0,0,0,-0.0244,-0.0238,-0.016,-0.0181,-0.0169,-0.0133,-0.0129,-0.0123,-0.0098,-0.0032,-0.0022,-0.0091,0.0032,0.0052,0.014,0.0115,0.0127,0.0135,0.0349,0.035,0.0351,0.0249,0,0,0,0,0,0,-0.0247,-0.0239,-0.0237,-0.0183,-0.0168,-0.0106,-0.0126,-0.0119,-0.0089,-0.0092,-0.0013,-0.0002,0.0031,0.0126,0.0148,0.0127,0.0142,0.0348,0.0349,0.035,0.0251,0.0247,0.0242,0,0,0,0,0,-0.025,-0.0227,-0.0238,-0.0231,-0.017,-0.0105,-0.0092,-0.0074,-0.0086,-0.0064,-0.0018,-0.0005,0.0149,0.0136,0.0161,0.0142,0.0347,0.0349,0.035,0.0253,0.0247,0.0242,0,0,0,0,0,0,-0.026,-0.0224,-0.0235,-0.0206,-0.0168,-0.0108,-0.0079,-0.0067,-0.001,-0.0016,0.0035,0.0053,0.0102,0.0163,0.0146,0.0213,0.024,0.0247,0.0157,0.0153,0.0149,0.0119,0.0149,0,0,0,0,0,-0.0263,-0.024,-0.0203,-0.0181,-0.0163,-0.0122,-0.0092,-0.0081,-0.0027,-0.0007,0.0041,0.0094,0.0137,0.0176,0.023,0.0306,0.0331,0.0304,0.0299,0.0294,0.029,0.033,0.0327,0.0357,0.0357,0.0357,0,0,-0.0266,-0.0239,-0.023,-0.0181,-0.0151,-0.014,-0.011,-0.0064,-0.0067,0.0009,0.0036,0.0087,0.0154,0.0199,0.0227,0.0246,0.0294,0.0297,0.0292,0.029,0.0331,0.0328,0.0325,0.0358,0.0358,0.0358,0,0,-0.0267,-0.0232,-0.0231,-0.02,-0.0158,-0.0129,-0.0121,-0.0066,-0.0052,0.0001,0.0022,0.0072,0.0164,0.019,0.0217,0.0241,0.0261,0.0249,0.0215,0.0252,0.0249,0.0247,0.024,0.0239,0.0255,0.0255,0.0255,0,-0.0284,-0.0279,-0.0215,-0.0212,-0.0199,-0.0137,-0.0147,-0.0108,-0.0038,-0.0019,-0.0008,0.0095,0.0149,0.0186,0.0174,0.0225,0.0239,0.0219,0.0242,0.0241,0.024,0.0235,0.0234,0.0251,0.0251,0.0252,0.0252,0,-0.0303,-0.03,-0.0284,-0.0279,-0.0245,-0.0224,-0.0183,-0.015,-0.0123,-0.0093,-0.0041,0.0042,0.0098,0.0113,0.015,0.0169,0.0174,0.0218,0.0242,0.023,0.0226,0.0226,0.0244,0.0246,0.0247,0.0248,0,0,-0.0358,-0.0316,-0.0319,-0.0332,-0.0281,-0.0258,-0.0244,-0.0209,-0.0202,-0.0136,-0.0123,-0.0051,-0.0001,0.0035,0.009,0.0127,0.012,0.0164,0.0168,0.0132,0.0166,0.0201,0.0205,0.0164,0.0164,0.0165,0.0151,0,-0.0412,-0.0433,-0.0388,-0.0411,-0.0421,-0.0354,-0.0343,-0.0297,-0.0245,-0.0205,-0.0126,-0.0083,-0.0033,-0.0005,0.0036,0.0105,0.0124,0.0117,0.0207,0.0208,0.0221,0.0209,0.0257,0.0253,0.0152,0.0152,0.0152,0,-0.0474,-0.0474,-0.0513,-0.0487,-0.0483,-0.0483,-0.0443,-0.0422,-0.0342,-0.0296,-0.0232,-0.0161,-0.0103,-0.005,0.0039,0.003,0.0082,0.0134,0.0136,0.0209,0.0247,0.0261,0.0259,0.0422,0.0154,0.0154,0.0154,0,-0.0568,-0.0564,-0.0598,-0.0593,-0.0553,-0.0552,-0.0528,-0.0457,-0.0434,-0.0352,-0.0325,-0.0231,-0.0191,-0.0102,-0.0002,0.0019,0.0088,0.0138,0.021,0.0211,0.0292,0.0301,0.0443,0.0193,0.0193,0.0193,0.0193,0,-0.0651,-0.0676,-0.0645,-0.0665,-0.0694,-0.0631,-0.0638,-0.059,-0.0518,-0.0499,-0.0382,-0.0357,-0.02,-0.0133,-0.0036,0.0075,0.006,0.0193,0.0219,0.0256,0.0261,0.0442,0.0505,0.0193,0.0193,0.0193,0.0193,0,-0.0751,-0.0735,-0.077,-0.0746,-0.0743,-0.0765,-0.0722,-0.0715,-0.0634,-0.0607,-0.0587,-0.0464,-0.0368,-0.0225,-0.0087,0.0024,0.0232,0.0175,0.0184,0.0213,0.0466,0.052,0.0651,0.0749,0.0265,0.0266,0.0267,0,-0.0796,-0.0828,-0.0846,-0.0873,-0.0867,-0.0877,-0.0879,-0.0796,-0.0773,-0.0683,-0.0678,-0.0574,-0.0505,-0.0295,-0.0067,0.0113,0.0244,0.0268,0.0341,0.0482,0.0561,0.0592,0.0667,0.0386,0.0388,0.0389,0.039,0,-0.0871,-0.0884,-0.0912,-0.0975,-0.0999,-0.1018,-0.1004,-0.0999,-0.0899,-0.0866,-0.0818,-0.0761,-0.0528,-0.028,-0.0008,0.0116,0.0409,0.0303,0.0467,0.0681,0.0707,0.0812,0.0357,0.0402,0.0401,0.04,0.04,0.0399,-0.0908,-0.0959,-0.0997,-0.1049,-0.1093,-0.1119,-0.1111,-0.1094,-0.1066,-0.0961,-0.0935,-0.0765,-0.0396,0.0008,0.014,0.054,0.0508,0.0688,0.0737,0.075,0.0876,0.0425,0.0501,0.05,0.05,0.0499,0.0499,0,-0.0919,-0.0979,-0.1054,-0.1105,-0.1148,-0.1155,-0.1152,-0.1109,-0.1076,-0.0978,-0.0913,-0.0449,-0.0104,0.0279,0.0781,0.0981,0.1031,0.1083,0.1161,0.1217,0.0841,0.0885,0.1027,0.1027,0.1027,0.1027,0.1026,0.1026,-0.0922,-0.0995,-0.1037,-0.1105,-0.1144,-0.1138,-0.1122,-0.1085,-0.0978,-0.0748,-0.0451,-0.0237,0.0309,0.093,0.1364,0.1402,0.1589,0.1546,0.1643,0.1415,0.1383,0.1353,0.1412,0.1663,0.1663,0.2027,0.2031,0.2034]}],[{"header":{"parameterUnit":"m.s-1","parameterCategory":2,"la1":30.2991,"la2":30.254,"lo1":-89.0895,"lo2":-89.0444,"dy":0.0017,"dx":0.0017,"nx":28,"ny":28,"refTime":"2026-01-31T03:00:00:Z","depth":"2","parameterNumber":2,"parameterNumberName":"U-component_of_CURRENTS"},"data":[0,0,0,0,0,0,0,0,0,0,0,0,0,0,0,0,0,0,0,0,0,0,0,0,0,0,0,0,0,0,0,0,0,0,0,0,0,0,0,0,0,0,0,0,0,0,0,0,0,0,0,0,0,0,0,0,0,0,-0.2342,-0.2342,0,-0.2402,-0.2403,-0.2404,-0.2391,-0.239,-0.2388,-0.2387,-0.2369,-0.237,-0.237,0,0,0,0,0,0,0,0,0,0,0,0,0,-0.2251,-0.2253,-0.2342,-0.2342,-0.2343,-0.2402,-0.2403,-0.2404,-0.2391,-0.2389,-0.2388,-0.2387,-0.2369,-0.2369,-0.237,0,0,0,0,0,0,0,0,0,0,0,0,0,-0.2298,-0.2253,-0.2341,-0.2345,-0.2345,-0.2402,-0.2403,-0.2404,-0.2391,-0.2389,-0.2388,-0.2386,-0.2369,-0.2369,-0.237,-0.2406,0,0,-0.2372,-0.2373,0,0,0,0,0,0,0,0,-0.2295,-0.2301,-0.2343,-0.2344,-0.2346,-0.2388,-0.2365,-0.2401,-0.2391,-0.2373,-0.2387,-0.2386,-0.237,-0.237,-0.2385,-0.2405,-0.2405,-0.2372,-0.2373,-0.2373,-0.2373,0,0,0,0,0,0,0,-0.2292,-0.2299,-0.2365,-0.2344,-0.2346,-0.2356,-0.236,-0.2372,-0.2377,-0.2374,-0.2374,-0.2382,-0.2369,-0.2385,-0.2384,-0.2404,-0.2372,-0.2373,-0.2374,-0.2374,-0.2516,-0.252,0,0,0,0,0,0,-0.2287,-0.2296,-0.2363,-0.2367,-0.2317,-0.2358,-0.2363,-0.2375,-0.2379,-0.2379,-0.2384,-0.2382,-0.2384,-0.2384,-0.2384,-0.2424,-0.2373,-0.2374,-0.2374,-0.2513,-0.2517,-0.2521,0,0,0,0,0,0,-0.2285,-0.2292,-0.236,-0.2333,-0.2342,-0.2362,-0.2375,-0.2377,-0.24,-0.2387,-0.2385,-0.2404,-0.2383,-0.2383,-0.2407,-0.2423,-0.2374,-0.2375,-0.2509,-0.2514,-0.2519,-0.2506,0,0,0,0,0,0,-0.2282,-0.2291,-0.2298,-0.2333,-0.2344,-0.2388,-0.2377,-0.238,-0.2407,-0.2405,-0.2404,-0.24,-0.2382,-0.2407,-0.2408,-0.2423,-0.2375,-0.2505,-0.2511,-0.2517,-0.2502,-0.251,-0.2517,0,0,0,0,0,-0.2278,-0.2267,-0.2298,-0.2306,-0.2352,-0.2389,-0.2395,-0.2403,-0.241,-0.2418,-0.243,-0.2401,-0.2448,-0.2409,-0.241,-0.2426,-0.2502,-0.251,-0.2517,-0.2499,-0.2509,-0.2517,0,0,0,0,0,0,-0.2235,-0.2267,-0.23,-0.2304,-0.2352,-0.2386,-0.2391,-0.2418,-0.2439,-0.2434,-0.2429,-0.2427,-0.2465,-0.2466,-0.2423,-0.2498,-0.2477,-0.2485,-0.2464,-0.2473,-0.248,-0.2495,-0.2376,0,0,0,0,0,-0.2235,-0.223,-0.229,-0.2298,-0.2323,-0.2373,-0.2391,-0.2407,-0.2432,-0.244,-0.2447,-0.2469,-0.2502,-0.2499,-0.2527,-0.2551,-0.2523,-0.2574,-0.2581,-0.2587,-0.2608,-0.2572,-0.2575,-0.2546,-0.2545,-0.2545,0,0,-0.2219,-0.224,-0.2238,-0.2289,-0.2326,-0.2372,-0.2378,-0.2407,-0.2444,-0.2435,-0.2473,-0.2496,-0.2523,-0.2555,-0.2572,-0.2546,-0.258,-0.2596,-0.26,-0.2619,-0.258,-0.2582,-0.2584,-0.2551,-0.255,-0.2549,0,0,-0.2195,-0.2216,-0.2219,-0.2258,-0.2318,-0.2359,-0.2376,-0.2431,-0.245,-0.2505,-0.2516,-0.2552,-0.2594,-0.2607,-0.2624,-0.2698,-0.2633,-0.2714,-0.2733,-0.2696,-0.2696,-0.2696,-0.2635,-0.263,-0.2697,-0.2697,-0.2697,0,-0.2185,-0.2213,-0.2229,-0.226,-0.2293,-0.2361,-0.24,-0.2441,-0.2496,-0.2517,-0.2517,-0.2612,-0.2624,-0.2669,-0.2702,-0.2708,-0.2667,-0.2678,-0.2697,-0.2697,-0.2697,-0.2634,-0.2628,-0.2698,-0.2698,-0.2698,-0.2698,0,-0.2176,-0.2217,-0.2223,-0.2292,-0.232,-0.2364,-0.2429,-0.2471,-0.2518,-0.256,-0.2623,-0.2651,-0.2702,-0.2718,-0.2733,-0.2758,-0.2721,-0.2712,-0.2652,-0.2697,-0.2631,-0.2624,-0.2698,-0.2698,-0.2698,-0.2698,0,0,-0.2115,-0.2208,-0.2211,-0.226,-0.2345,-0.2366,-0.2433,-0.2514,-0.2562,-0.2614,-0.2655,-0.2737,-0.2754,-0.2781,-0.2791,-0.277,-0.273,-0.2744,-0.2741,-0.2643,-0.2619,-0.2515,-0.2497,-0.27,-0.27,-0.27,-0.2559,0,-0.213,-0.2191,-0.2226,-0.2299,-0.235,-0.2415,-0.2482,-0.2543,-0.26,-0.2651,-0.2689,-0.2747,-0.2774,-0.2794,-0.2783,-0.2757,-0.272,-0.2769,-0.2628,-0.2624,-0.2492,-0.249,-0.2321,-0.2175,-0.2552,-0.2551,-0.255,0,-0.211,-0.2165,-0.2236,-0.2336,-0.2362,-0.2417,-0.2508,-0.2575,-0.266,-0.2692,-0.2737,-0.2767,-0.2788,-0.2792,-0.2741,-0.2761,-0.2709,-0.267,-0.2663,-0.2573,-0.251,-0.2204,-0.2149,-0.254,-0.254,-0.2541,-0.2542,0,-0.2053,-0.2156,-0.2217,-0.2248,-0.238,-0.2422,-0.2502,-0.2594,-0.2644,-0.2716,-0.2731,-0.2765,-0.2765,-0.2726,-0.2677,-0.2699,-0.2578,-0.2583,-0.2434,-0.2424,-0.2262,-0.2238,-0.2535,-0.2535,-0.2535,-0.2536,-0.2536,0,-0.2046,-0.2091,-0.2206,-0.2244,-0.233,-0.2408,-0.2491,-0.2576,-0.2659,-0.2689,-0.2755,-0.2737,-0.2749,-0.2687,-0.2647,-0.2506,-0.2543,-0.2437,-0.2384,-0.2253,-0.2232,-0.2553,-0.2557,-0.253,-0.2532,-0.2533,-0.2533,0,-0.1987,-0.2066,-0.2144,-0.2276,-0.2316,-0.2376,-0.2494,-0.2537,-0.2636,-0.2659,-0.2676,-0.2699,-0.261,-0.2585,-0.249,-0.2439,-0.2336,-0.2276,-0.2114,-0.2046,-0.2213,-0.2219,-0.2093,-0.2088,-0.2084,-0.208,-0.2078,0,-0.1965,-0.2002,-0.2139,-0.2169,-0.2241,-0.233,-0.2386,-0.252,-0.2526,-0.2602,-0.2569,-0.2543,-0.2451,-0.2283,-0.2182,-0.2053,-0.2177,-0.1848,-0.1883,-0.2208,-0.2169,-0.2182,-0.2193,-0.1648,-0.1642,-0.1637,-0.1633,0,-0.1931,-0.1986,-0.2048,-0.212,-0.2179,-0.2217,-0.2285,-0.2291,-0.2399,-0.2401,-0.2342,-0.2296,-0.2161,-0.1938,-0.1818,-0.1737,-0.1865,-0.1741,-0.2089,-0.1801,-0.1781,-0.1746,-0.1773,-0.1588,-0.1593,-0.1596,-0.1598,-0.16,-0.1914,-0.1924,-0.2001,-0.2043,-0.2095,-0.2077,-0.2038,-0.2058,-0.2048,-0.2014,-0.2055,-0.1926,-0.1889,-0.1588,-0.1459,-0.1375,-0.1523,-0.1479,-0.1497,-0.152,-0.1509,-0.1485,-0.1231,-0.1234,-0.1236,-0.1238,-0.1239,0,-0.1937,-0.1928,-0.1909,-0.194,-0.1893,-0.1998,-0.1934,-0.1834,-0.1733,-0.1739,-0.1667,-0.145,-0.1285,-0.126,-0.1046,-0.0996,-0.1016,-0.0964,-0.1007,-0.105,-0.1089,-0.1061,-0.0661,-0.066,-0.0658,-0.0657,0,0,-0.1965,-0.1917,-0.1846,-0.1727,-0.1747,-0.1658,-0.1592,-0.1447,-0.1356,-0.1238,-0.1177,-0.1249,-0.1236,-0.097,-0.0886,-0.074,-0.0895,-0.0693,-0.1155,-0.125,-0.1287,-0.1378,-0.1381,0,0,0,0,0]},{"header":{"parameterUnit":"m.s-1","parameterCategory":2,"la1":30.2991,"la2":30.254,"lo1":-89.0895,"lo2":-89.0444,"dy":0.0017,"dx":0.0017,"nx":28,"ny":28,"refTime":"2026-01-31T03:00:00:Z","depth":"2","parameterNumber":3,"parameterNumberName":"V-component_of_CURRENTS"},"data":[0,0,0,0,0,0,0,0,0,0,0,0,0,0,0,0,0,0,0,0,0,0,0,0,0,0,0,0,0,0,0,0,0,0,0,0,0,0,0,0,0,0,0,0,0,0,0,0,0,0,0,0,0,0,0,0,0,0,-0.0329,-0.033,0,-0.0325,-0.0325,-0.0324,-0.0259,-0.0257,-0.0256,-0.0255,-0.0199,-0.0199,-0.0199,0,0,0,0,0,0,0,0,0,0,0,0,0,-0.0255,-0.0257,-0.0329,-0.033,-0.033,-0.0325,-0.0325,-0.0324,-0.0259,-0.0257,-0.0256,-0.0254,-0.02,-0.0199,-0.0199,0,0,0,0,0,0,0,0,0,0,0,0,0,-0.027,-0.0257,-0.0329,-0.0299,-0.0297,-0.0325,-0.0325,-0.0324,-0.0259,-0.0257,-0.0255,-0.0253,-0.02,-0.0199,-0.0199,-0.0238,0,0,-0.0198,-0.0198,0,0,0,0,0,0,0,0,-0.0269,-0.0272,-0.0303,-0.0301,-0.0299,-0.0293,-0.0279,-0.0294,-0.026,-0.027,-0.0255,-0.0252,-0.023,-0.0227,-0.0227,-0.0236,-0.0233,-0.0198,-0.0198,-0.0198,-0.0198,0,0,0,0,0,0,0,-0.0268,-0.0272,-0.0324,-0.0304,-0.0301,-0.0277,-0.0277,-0.0281,-0.0258,-0.0269,-0.0265,-0.0271,-0.0227,-0.0227,-0.0225,-0.0232,-0.0198,-0.0198,-0.0198,-0.0198,-0.017,-0.0169,0,0,0,0,0,0,-0.028,-0.0272,-0.0324,-0.0324,-0.0282,-0.0281,-0.028,-0.0294,-0.0259,-0.0253,-0.0272,-0.0268,-0.0229,-0.0225,-0.0223,-0.022,-0.0198,-0.0198,-0.0197,-0.017,-0.017,-0.0169,0,0,0,0,0,0,-0.0278,-0.0285,-0.0325,-0.0299,-0.0303,-0.0285,-0.0301,-0.0295,-0.0285,-0.0263,-0.0254,-0.0267,-0.0227,-0.0223,-0.0221,-0.0219,-0.0197,-0.0197,-0.0171,-0.017,-0.0169,-0.0246,0,0,0,0,0,0,-0.0276,-0.0285,-0.0296,-0.0301,-0.0305,-0.0349,-0.0303,-0.0297,-0.0294,-0.0287,-0.0256,-0.0249,-0.0225,-0.0222,-0.0221,-0.0218,-0.0197,-0.0172,-0.0171,-0.017,-0.0244,-0.0248,-0.0251,0,0,0,0,0,-0.0274,-0.0315,-0.0297,-0.0303,-0.0323,-0.0351,-0.0351,-0.0327,-0.0296,-0.0306,-0.0276,-0.0249,-0.0213,-0.0223,-0.0222,-0.0219,-0.0172,-0.0171,-0.017,-0.0242,-0.0247,-0.0251,0,0,0,0,0,0,-0.0293,-0.0313,-0.0293,-0.0337,-0.034,-0.0341,-0.0355,-0.0333,-0.0319,-0.0306,-0.0268,-0.0261,-0.0243,-0.0226,-0.0238,-0.0201,-0.0178,-0.0177,-0.0234,-0.0238,-0.0241,-0.023,-0.0197,0,0,0,0,0,-0.0303,-0.0334,-0.0339,-0.0372,-0.0378,-0.0362,-0.0367,-0.0352,-0.0344,-0.0334,-0.0312,-0.0276,-0.0241,-0.0238,-0.0208,-0.0221,-0.0173,-0.0205,-0.0209,-0.0212,-0.0198,-0.0125,-0.0121,-0.0165,-0.0165,-0.0165,0,0,-0.0319,-0.0335,-0.035,-0.0377,-0.0376,-0.0395,-0.0359,-0.0379,-0.0378,-0.0333,-0.033,-0.0291,-0.0242,-0.0232,-0.0223,-0.0222,-0.018,-0.0211,-0.0215,-0.0198,-0.0123,-0.0119,-0.0115,-0.0164,-0.0164,-0.0164,0,0,-0.0368,-0.0379,-0.0413,-0.0425,-0.0435,-0.0429,-0.0434,-0.0434,-0.0414,-0.0415,-0.0359,-0.0324,-0.0302,-0.026,-0.0233,-0.0242,-0.019,-0.0227,-0.0255,-0.0186,-0.0181,-0.0177,-0.014,-0.0131,-0.0243,-0.0243,-0.0243,0,-0.0378,-0.0422,-0.0427,-0.0459,-0.0473,-0.0444,-0.0474,-0.046,-0.0453,-0.0438,-0.0418,-0.0336,-0.0304,-0.0263,-0.0256,-0.025,-0.021,-0.0253,-0.0192,-0.0186,-0.018,-0.0142,-0.0132,-0.0246,-0.0246,-0.0246,-0.0245,0,-0.0445,-0.0474,-0.0502,-0.0524,-0.0542,-0.057,-0.0555,-0.0556,-0.0524,-0.0493,-0.0443,-0.0392,-0.0338,-0.032,-0.0293,-0.0236,-0.0222,-0.0198,-0.0188,-0.0181,-0.0141,-0.0129,-0.0251,-0.025,-0.0249,-0.0248,0,0,-0.0476,-0.0534,-0.0541,-0.056,-0.0578,-0.0605,-0.0609,-0.06,-0.0583,-0.0545,-0.0511,-0.0441,-0.0392,-0.0355,-0.0311,-0.0256,-0.0194,-0.0218,-0.0212,-0.0193,-0.0058,-0.0042,-0.0027,-0.016,-0.0157,-0.0156,-0.0058,0,-0.0515,-0.0591,-0.0606,-0.0662,-0.0695,-0.0684,-0.0689,-0.0673,-0.0632,-0.0594,-0.0509,-0.0453,-0.041,-0.0379,-0.0316,-0.0211,-0.016,-0.0224,-0.0055,-0.005,-0.0046,-0.0011,-0.0008,0.0082,-0.0046,-0.0044,-0.0042,0,-0.0567,-0.061,-0.0679,-0.0727,-0.0739,-0.0762,-0.0765,-0.0763,-0.0695,-0.0655,-0.0581,-0.0505,-0.0414,-0.0372,-0.0201,-0.0244,-0.0152,-0.0077,-0.0071,-0.0013,-0.001,0.0063,0.0109,-0.0021,-0.0023,-0.0025,-0.0026,0,-0.0593,-0.0663,-0.072,-0.074,-0.0783,-0.0803,-0.0812,-0.0775,-0.0762,-0.068,-0.0644,-0.0526,-0.0446,-0.032,-0.0168,-0.0176,0.0024,0.0029,0.0125,0.0125,0.0186,0.0189,0.016,0.016,0.016,0.016,0.016,0,-0.0637,-0.0683,-0.0736,-0.077,-0.0824,-0.0836,-0.0858,-0.0843,-0.0795,-0.0762,-0.0667,-0.0601,-0.0419,-0.029,-0.0169,0.0016,0.0025,0.014,0.0167,0.0156,0.0155,0.0118,0.0112,0.0163,0.0163,0.0162,0.0161,0,-0.0667,-0.0699,-0.0769,-0.0824,-0.0841,-0.0879,-0.0905,-0.0909,-0.0854,-0.0805,-0.0777,-0.0631,-0.046,-0.03,-0.0078,0.0026,0.0185,0.0245,0.0203,0.0223,0.0233,0.0222,0.0364,0.0366,0.0367,0.0368,0.0369,0,-0.0693,-0.0731,-0.0812,-0.0854,-0.0884,-0.0931,-0.0958,-0.0937,-0.0932,-0.0818,-0.0794,-0.0619,-0.0484,-0.018,0.0027,0.0234,0.0231,0.0361,0.0357,0.025,0.0262,0.0248,0.0235,0.0395,0.0396,0.0397,0.0397,0,-0.0735,-0.0762,-0.0822,-0.0904,-0.0954,-0.1004,-0.1033,-0.1029,-0.0979,-0.0913,-0.0784,-0.0661,-0.0376,-0.0116,0.0146,0.0266,0.0324,0.0387,0.0325,0.0333,0.0286,0.0294,0.028,0.0406,0.0405,0.0404,0.0404,0.0404,-0.076,-0.0812,-0.0883,-0.0962,-0.1017,-0.1051,-0.1069,-0.1054,-0.1009,-0.087,-0.0769,-0.053,-0.0321,0.0091,0.025,0.0413,0.0403,0.047,0.0465,0.046,0.0437,0.0395,0.0529,0.0529,0.0528,0.0528,0.0528,0,-0.0788,-0.0847,-0.0935,-0.1017,-0.1075,-0.1086,-0.1105,-0.1073,-0.0987,-0.0818,-0.066,-0.0362,-0.0081,0.0129,0.0397,0.0531,0.0513,0.0555,0.0512,0.0504,0.0497,0.0473,0.0576,0.0576,0.0577,0.0577,0,0,-0.0805,-0.089,-0.0943,-0.1043,-0.109,-0.1126,-0.112,-0.1027,-0.09,-0.0696,-0.0492,-0.027,-0.0018,0.018,0.0334,0.0472,0.045,0.0483,0.0435,0.0358,0.0349,0.0445,0.04,0,0,0,0,0]}],[{"header":{"parameterUnit":"m.s-1","parameterCategory":2,"la1":30.2991,"la2":30.254,"lo1":-89.0895,"lo2":-89.0444,"dy":0.0017,"dx":0.0017,"nx":28,"ny":28,"refTime":"2026-01-31T03:00:00:Z","depth":"4","parameterNumber":2,"parameterNumberName":"U-component_of_CURRENTS"},"data":[0,0,0,0,0,0,0,0,0,0,0,0,0,0,0,0,0,0,0,0,0,0,0,0,0,0,0,0,0,0,0,0,0,0,0,0,0,0,0,0,0,0,0,0,0,0,0,0,0,0,0,0,0,0,0,0,0,0,-0.1514,-0.1515,0,-0.1561,-0.1561,-0.1562,-0.1627,-0.1628,-0.1629,-0.163,-0.1713,-0.1715,-0.1716,0,0,0,0,0,0,0,0,0,0,0,0,0,-0.1492,-0.1492,-0.1514,-0.1515,-0.1515,-0.1561,-0.1561,-0.1562,-0.1627,-0.1628,-0.163,-0.1631,-0.1713,-0.1714,-0.1716,0,0,0,0,0,0,0,0,0,0,0,0,0,-0.1516,-0.1492,-0.1514,-0.1553,-0.1557,-0.1561,-0.1561,-0.1562,-0.1627,-0.1628,-0.163,-0.1631,-0.1713,-0.1714,-0.1716,-0.1694,0,0,-0.1722,-0.1722,0,0,0,0,0,0,0,0,-0.1515,-0.1517,-0.1547,-0.155,-0.1555,-0.159,-0.1584,-0.1608,-0.1626,-0.16,-0.163,-0.1632,-0.1674,-0.1679,-0.1684,-0.1698,-0.1702,-0.1722,-0.1723,-0.1724,-0.1724,0,0,0,0,0,0,0,-0.1513,-0.1515,-0.1533,-0.1547,-0.1552,-0.1572,-0.1577,-0.1589,-0.1628,-0.1603,-0.1608,-0.1612,-0.1677,-0.1682,-0.1687,-0.1703,-0.1722,-0.1723,-0.1724,-0.1725,-0.1812,-0.1814,0,0,0,0,0,0,-0.1504,-0.1513,-0.1531,-0.1534,-0.1538,-0.1571,-0.1577,-0.1577,-0.1627,-0.1636,-0.161,-0.1615,-0.1678,-0.1684,-0.169,-0.176,-0.1724,-0.1725,-0.1726,-0.1811,-0.1813,-0.1814,0,0,0,0,0,0,-0.1503,-0.1505,-0.1529,-0.1525,-0.153,-0.1569,-0.1569,-0.1577,-0.1609,-0.1633,-0.1643,-0.1637,-0.168,-0.1687,-0.1736,-0.1761,-0.1726,-0.1728,-0.181,-0.1812,-0.1813,-0.1842,0,0,0,0,0,0,-0.1502,-0.1504,-0.1511,-0.1524,-0.153,-0.1544,-0.1568,-0.1577,-0.1607,-0.1614,-0.1658,-0.1666,-0.1682,-0.1733,-0.1738,-0.1763,-0.1729,-0.1808,-0.1811,-0.1813,-0.1839,-0.1844,-0.1849,0,0,0,0,0,-0.1501,-0.1487,-0.1511,-0.1514,-0.1534,-0.1544,-0.1549,-0.1583,-0.1607,-0.1618,-0.1664,-0.1666,-0.1751,-0.1736,-0.1741,-0.1767,-0.1807,-0.181,-0.1813,-0.1837,-0.1843,-0.1849,0,0,0,0,0,0,-0.1486,-0.1493,-0.1519,-0.1513,-0.1539,-0.1556,-0.1565,-0.1591,-0.1633,-0.1651,-0.168,-0.169,-0.1744,-0.1749,-0.1731,-0.18,-0.178,-0.1784,-0.1797,-0.1803,-0.1808,-0.1804,-0.1731,0,0,0,0,0,-0.1484,-0.1474,-0.1501,-0.15,-0.1512,-0.1546,-0.1559,-0.1587,-0.1618,-0.164,-0.1675,-0.1715,-0.1752,-0.1774,-0.1802,-0.1833,-0.1829,-0.1854,-0.1859,-0.1863,-0.1864,-0.189,-0.1897,-0.1823,-0.1823,-0.1823,0,0,-0.1473,-0.1481,-0.1475,-0.1496,-0.1519,-0.1541,-0.1558,-0.1582,-0.1617,-0.164,-0.1701,-0.1732,-0.1765,-0.1811,-0.1834,-0.1823,-0.1879,-0.1866,-0.187,-0.1869,-0.1894,-0.1901,-0.1907,-0.1825,-0.1825,-0.1825,0,0,-0.1446,-0.1462,-0.1454,-0.1478,-0.1517,-0.1541,-0.1554,-0.1593,-0.163,-0.1684,-0.1718,-0.1767,-0.1816,-0.1849,-0.187,-0.1913,-0.1905,-0.1925,-0.1945,-0.1971,-0.1977,-0.1982,-0.1971,-0.1975,-0.1926,-0.1926,-0.1926,0,-0.1442,-0.1442,-0.1456,-0.1471,-0.1495,-0.1545,-0.1566,-0.1604,-0.1661,-0.1693,-0.1711,-0.1804,-0.1835,-0.1891,-0.1918,-0.1924,-0.1925,-0.192,-0.1976,-0.1981,-0.1986,-0.1973,-0.1977,-0.1928,-0.1927,-0.1927,-0.1927,0,-0.1414,-0.1436,-0.1434,-0.1474,-0.1502,-0.1523,-0.1582,-0.1627,-0.1681,-0.1722,-0.1797,-0.1843,-0.1897,-0.1918,-0.1937,-0.199,-0.1974,-0.1978,-0.1958,-0.1995,-0.1979,-0.1983,-0.193,-0.193,-0.1929,-0.1929,0,0,-0.1353,-0.1404,-0.1411,-0.1443,-0.151,-0.1528,-0.1592,-0.1657,-0.1701,-0.1772,-0.1824,-0.1904,-0.1933,-0.1958,-0.1987,-0.2015,-0.2052,-0.2017,-0.2017,-0.1998,-0.2086,-0.1919,-0.1907,-0.2071,-0.2072,-0.2073,-0.2054,0,-0.134,-0.1366,-0.1399,-0.1447,-0.1472,-0.1543,-0.1594,-0.1664,-0.173,-0.1792,-0.1858,-0.1918,-0.1947,-0.1978,-0.2016,-0.2054,-0.2067,-0.2055,-0.2059,-0.2058,-0.19,-0.1907,-0.2077,-0.2057,-0.2058,-0.2058,-0.2059,0,-0.1309,-0.1335,-0.1372,-0.1447,-0.1465,-0.1507,-0.1599,-0.1652,-0.1749,-0.18,-0.1873,-0.1922,-0.1997,-0.2005,-0.2079,-0.2073,-0.2081,-0.2095,-0.2095,-0.1931,-0.1898,-0.2017,-0.2065,-0.2065,-0.2064,-0.2064,-0.2064,0,-0.1257,-0.1319,-0.1351,-0.1376,-0.1463,-0.1505,-0.1561,-0.1657,-0.1696,-0.1805,-0.1833,-0.1936,-0.1985,-0.2031,-0.2077,-0.2086,-0.2127,-0.2138,-0.1985,-0.1973,-0.2117,-0.2112,-0.2164,-0.2164,-0.2164,-0.2164,-0.2164,0,-0.122,-0.125,-0.1334,-0.1351,-0.1394,-0.1475,-0.1531,-0.1601,-0.1685,-0.1721,-0.183,-0.1864,-0.1998,-0.2039,-0.2072,-0.2028,-0.2123,-0.1976,-0.1957,-0.2127,-0.2124,-0.2118,-0.2113,-0.2163,-0.2163,-0.2163,-0.2163,0,-0.1152,-0.1211,-0.1249,-0.1341,-0.137,-0.1403,-0.1493,-0.152,-0.1618,-0.1664,-0.1695,-0.1824,-0.1881,-0.1956,-0.2033,-0.1991,-0.1983,-0.1938,-0.209,-0.2081,-0.1812,-0.1809,-0.1761,-0.1755,-0.175,-0.1746,-0.1742,0,-0.1116,-0.113,-0.1219,-0.1237,-0.1279,-0.134,-0.1366,-0.1474,-0.1494,-0.1622,-0.1619,-0.1715,-0.1787,-0.1755,-0.1858,-0.1864,-0.1852,-0.1819,-0.1835,-0.1784,-0.1771,-0.1777,-0.178,-0.1734,-0.1733,-0.1731,-0.173,0,-0.1041,-0.1083,-0.1111,-0.1145,-0.1179,-0.1205,-0.1257,-0.126,-0.1376,-0.1468,-0.1512,-0.1551,-0.1597,-0.167,-0.1668,-0.1684,-0.1832,-0.1766,-0.1777,-0.1792,-0.1751,-0.1744,-0.1754,-0.1712,-0.1715,-0.1716,-0.1717,0,-0.0984,-0.098,-0.102,-0.1036,-0.1069,-0.106,-0.1111,-0.114,-0.118,-0.1325,-0.1347,-0.1463,-0.1591,-0.1573,-0.1585,-0.1567,-0.1556,-0.1514,-0.1538,-0.1559,-0.1501,-0.142,-0.1249,0,0,0,0,0,-0.0921,-0.0901,-0.0906,-0.0916,-0.0938,-0.0956,-0.1022,-0.1077,-0.1191,-0.1175,-0.1259,-0.1301,-0.1339,-0.141,-0.1352,-0.1474,-0.1547,-0.1397,-0.1508,-0.1614,-0.1634,-0.1585,0,0,0,0,0,0,-0.0876,-0.088,-0.0867,-0.0801,-0.0784,-0.0792,-0.0834,-0.0917,-0.0923,-0.1062,-0.1097,-0.1195,-0.1257,-0.1352,-0.132,-0.1332,-0.1367,-0.1467,-0.1462,-0.1602,-0.1621,-0.1637,-0.1594,0,0,0,0,0]},{"header":{"parameterUnit":"m.s-1","parameterCategory":2,"la1":30.2991,"la2":30.254,"lo1":-89.0895,"lo2":-89.0444,"dy":0.0017,"dx":0.0017,"nx":28,"ny":28,"refTime":"2026-01-31T03:00:00:Z","depth":"4","parameterNumber":3,"parameterNumberName":"V-component_of_CURRENTS"},"data":[0,0,0,0,0,0,0,0,0,0,0,0,0,0,0,0,0,0,0,0,0,0,0,0,0,0,0,0,0,0,0,0,0,0,0,0,0,0,0,0,0,0,0,0,0,0,0,0,0,0,0,0,0,0,0,0,0,0,-0.0288,-0.0288,0,-0.0313,-0.0313,-0.0313,-0.0267,-0.0266,-0.0265,-0.0263,-0.0228,-0.0229,-0.0229,0,0,0,0,0,0,0,0,0,0,0,0,0,-0.0199,-0.0201,-0.0288,-0.0288,-0.0289,-0.0313,-0.0313,-0.0313,-0.0268,-0.0266,-0.0264,-0.0263,-0.0228,-0.0229,-0.0229,0,0,0,0,0,0,0,0,0,0,0,0,0,-0.0231,-0.0202,-0.0288,-0.027,-0.0269,-0.0313,-0.0313,-0.0313,-0.0268,-0.0266,-0.0264,-0.0262,-0.0228,-0.0229,-0.0229,-0.0275,0,0,-0.0231,-0.0231,0,0,0,0,0,0,0,0,-0.0229,-0.0234,-0.0272,-0.0271,-0.027,-0.0286,-0.0269,-0.0298,-0.0269,-0.0267,-0.0263,-0.0261,-0.0245,-0.0244,-0.0252,-0.0273,-0.0271,-0.0231,-0.0231,-0.0231,-0.0232,0,0,0,0,0,0,0,-0.0227,-0.0233,-0.0296,-0.0273,-0.0272,-0.026,-0.0262,-0.0274,-0.0265,-0.0267,-0.0264,-0.027,-0.0243,-0.0251,-0.0251,-0.0271,-0.0231,-0.0231,-0.0232,-0.0232,-0.0272,-0.0273,0,0,0,0,0,0,-0.023,-0.0231,-0.0296,-0.0297,-0.0246,-0.0264,-0.0266,-0.0282,-0.0266,-0.0263,-0.0271,-0.0267,-0.0252,-0.025,-0.0249,-0.0268,-0.0231,-0.0232,-0.0232,-0.0271,-0.0272,-0.0273,0,0,0,0,0,0,-0.0228,-0.0236,-0.0295,-0.0265,-0.0272,-0.0268,-0.0286,-0.0284,-0.0287,-0.027,-0.0265,-0.0276,-0.025,-0.0248,-0.0258,-0.0267,-0.0232,-0.0233,-0.027,-0.0271,-0.0272,-0.0328,0,0,0,0,0,0,-0.0226,-0.0236,-0.025,-0.0266,-0.0274,-0.0321,-0.0288,-0.0286,-0.0295,-0.029,-0.0274,-0.0268,-0.0248,-0.0257,-0.0259,-0.0267,-0.0233,-0.0269,-0.0271,-0.0272,-0.0325,-0.033,-0.0335,0,0,0,0,0,-0.0223,-0.0259,-0.0251,-0.0259,-0.0294,-0.0323,-0.0326,-0.0314,-0.0297,-0.0308,-0.0294,-0.0268,-0.0266,-0.0259,-0.026,-0.0269,-0.0269,-0.027,-0.0272,-0.0322,-0.0329,-0.0335,0,0,0,0,0,0,-0.0232,-0.0259,-0.025,-0.0293,-0.0303,-0.0315,-0.0332,-0.0323,-0.0325,-0.0317,-0.0291,-0.0286,-0.0292,-0.0281,-0.0274,-0.0283,-0.0259,-0.0261,-0.0297,-0.0303,-0.0308,-0.0312,-0.0234,0,0,0,0,0,-0.0242,-0.0274,-0.0287,-0.0321,-0.0329,-0.0331,-0.0342,-0.0335,-0.0339,-0.0336,-0.0327,-0.0313,-0.0305,-0.0303,-0.0296,-0.0318,-0.0268,-0.032,-0.0325,-0.0329,-0.0333,-0.0268,-0.0267,-0.0278,-0.0278,-0.0278,0,0,-0.0257,-0.0275,-0.0293,-0.0325,-0.0333,-0.0356,-0.0332,-0.0357,-0.0369,-0.0335,-0.0353,-0.0335,-0.0314,-0.0324,-0.0325,-0.0314,-0.0298,-0.0332,-0.0336,-0.0337,-0.0269,-0.0268,-0.0266,-0.0279,-0.0279,-0.0279,0,0,-0.0296,-0.0317,-0.0346,-0.0362,-0.0379,-0.0384,-0.0392,-0.0406,-0.0402,-0.0424,-0.0391,-0.0382,-0.0387,-0.0365,-0.0355,-0.0391,-0.0326,-0.0387,-0.0421,-0.0358,-0.0356,-0.0353,-0.0277,-0.0268,-0.0391,-0.0392,-0.0392,0,-0.0306,-0.0348,-0.0359,-0.0387,-0.0406,-0.0397,-0.0427,-0.0432,-0.0445,-0.0449,-0.0433,-0.0421,-0.0403,-0.0399,-0.0406,-0.0402,-0.0349,-0.0399,-0.0363,-0.036,-0.0356,-0.0279,-0.0268,-0.0394,-0.0394,-0.0394,-0.0394,0,-0.0356,-0.039,-0.0414,-0.0442,-0.0464,-0.0495,-0.0501,-0.0516,-0.0512,-0.0509,-0.0508,-0.0483,-0.0471,-0.0463,-0.0448,-0.0424,-0.0387,-0.0373,-0.0345,-0.0358,-0.0276,-0.0263,-0.0398,-0.0397,-0.0397,-0.0396,0,0,-0.0378,-0.0436,-0.0444,-0.0467,-0.0498,-0.0524,-0.055,-0.057,-0.0583,-0.0577,-0.0582,-0.0565,-0.0543,-0.0529,-0.0501,-0.0453,-0.0382,-0.0411,-0.0406,-0.0332,-0.0224,-0.0222,-0.0207,-0.0356,-0.0355,-0.0354,-0.0171,0,-0.0409,-0.0473,-0.0494,-0.0553,-0.0586,-0.0595,-0.0625,-0.0638,-0.0637,-0.064,-0.0601,-0.0596,-0.0569,-0.0562,-0.051,-0.0414,-0.0353,-0.0431,-0.0226,-0.022,-0.0213,-0.0195,-0.0349,-0.0161,-0.0158,-0.0156,-0.0155,0,-0.0444,-0.0484,-0.0549,-0.0612,-0.0627,-0.066,-0.0702,-0.0724,-0.0719,-0.0715,-0.0694,-0.066,-0.0602,-0.0573,-0.0407,-0.0455,-0.0349,-0.0267,-0.0258,-0.023,-0.0195,-0.0147,-0.0131,-0.0132,-0.0134,-0.0136,-0.0137,0,-0.0452,-0.0525,-0.058,-0.0603,-0.0667,-0.0698,-0.0728,-0.0748,-0.0766,-0.0755,-0.075,-0.0683,-0.063,-0.0506,-0.0353,-0.037,-0.0148,-0.0146,-0.0039,-0.0036,-0.0067,-0.0071,-0.0019,-0.0019,-0.0019,-0.002,-0.002,0,-0.0479,-0.0525,-0.0592,-0.0624,-0.0692,-0.0725,-0.0781,-0.0799,-0.0812,-0.0816,-0.0785,-0.0748,-0.0608,-0.0476,-0.0344,-0.0147,-0.0132,-0.0035,0.0009,-0.0093,-0.0103,-0.0056,-0.0063,-0.0013,-0.0014,-0.0016,-0.0017,0,-0.0481,-0.0527,-0.0594,-0.067,-0.07,-0.0746,-0.0819,-0.0847,-0.0858,-0.0854,-0.0849,-0.0766,-0.0592,-0.0442,-0.0212,-0.0124,0.0052,0.0119,0.0014,0.0048,0.0123,0.0111,0.0257,0.0259,0.026,0.0261,0.0262,0,-0.0491,-0.0526,-0.062,-0.0664,-0.0705,-0.0776,-0.0821,-0.0864,-0.0879,-0.0849,-0.0829,-0.0695,-0.0615,-0.0275,-0.0136,0.0115,0.0139,0.0225,0.015,0.0122,0.0151,0.0137,0.0124,0.0264,0.0265,0.0265,0.0265,0,-0.0504,-0.0537,-0.0589,-0.0676,-0.0739,-0.0803,-0.0859,-0.0869,-0.0888,-0.0898,-0.0776,-0.0643,-0.0444,-0.0238,-0.0048,0.0124,0.0156,0.0239,0.0236,0.0167,0.0132,0.0157,0.0142,0.027,0.0269,0.0269,0.0268,0,-0.0511,-0.0545,-0.0613,-0.0686,-0.0761,-0.0804,-0.0837,-0.083,-0.0841,-0.0801,-0.0743,-0.0569,-0.0468,-0.0229,-0.0051,0.0107,0.0134,0.0166,0.0168,0.0164,0.0056,-0.0006,0.0138,0,0,0,0,0,-0.0519,-0.0557,-0.0622,-0.0702,-0.0767,-0.0809,-0.0853,-0.0871,-0.0875,-0.0778,-0.0763,-0.0579,-0.0325,-0.022,-0.0054,-0.0048,0.0141,0.0146,0.0174,0.0295,0.029,0.0175,0,0,0,0,0,0,-0.0531,-0.0588,-0.0616,-0.0693,-0.0743,-0.0811,-0.0834,-0.0835,-0.0775,-0.0751,-0.0602,-0.0554,-0.0296,-0.0409,-0.0052,-0.0011,0.0025,0.0257,0.026,0.0298,0.0293,0.0289,0.0169,0,0,0,0,0]}]]